Weather reports worldwide

Advertisment
Wattisham, United Kingdom (3590): temperature & dewpoint: 17.10.2019 05:00:00 - 23.10.2019 05:00:00 (BST)Wattisham, United Kingdom (3590): temperature -20cm & temperature -100cm: 17.10.2019 05:00:00 - 23.10.2019 05:00:00 (BST)Wattisham, United Kingdom (3590): wind speed & gusts: 17.10.2019 05:00:00 - 23.10.2019 05:00:00 (BST)Wattisham, United Kingdom (3590): wind direction: 17.10.2019 05:00:00 - 23.10.2019 05:00:00 (BST)Wattisham, United Kingdom (3590): reduced air pressure: 17.10.2019 05:00:00 - 23.10.2019 05:00:00 (BST)Wattisham, United Kingdom (3590): visibility: 17.10.2019 05:00:00 - 23.10.2019 05:00:00 (BST)Wattisham, United Kingdom (3590): sunshine duration: 17.10.2019 05:00:00 - 23.10.2019 05:00:00 (BST)Wattisham, United Kingdom (3590): precipitation: 17.10.2019 05:00:00 - 23.10.2019 05:00:00 (BST)
Date & Time tt [°C] td [°C] tt -20cm [°C] tt -100cm [°C] ff [km/h] ff [kn] fx [km/h] fx [kn] dd ppp [hPa] vv [km] sd [min] rr [mm]
23.10.2019 05:00:00 - - - - - - - - - - - - -
23.10.2019 04:00:00 5,8 4,6 - - 2 1 - - WSW 1019,9 10 0 0,0
23.10.2019 03:00:00 6,3 5,9 - - 4 2 - - WSW 1020,5 - 0 0,0
23.10.2019 02:00:00 7,0 6,7 - - 5 3 - - SW 1021,0 5 0 0,0
23.10.2019 01:00:00 6,6 5,9 - - 5 3 - - SSW 1021,7 2,6 - 0,0
23.10.2019 00:00:00 8,4 7,8 - - 9 5 - - S 1022,2 7 0 0,0
22.10.2019 23:00:00 8,4 7,4 - - 11 6 - - S 1022,5 10 0 0,0
22.10.2019 22:00:00 8,4 6,8 - - 8 4 - - SSW 1022,3 10 0 0,0
22.10.2019 21:00:00 9,0 7,3 - - 11 6 - - S 1022,3 10 0 0,0
22.10.2019 20:00:00 8,9 7,3 - - 11 6 - - S 1022,7 10 0 0,0
22.10.2019 19:00:00 10,2 6,0 - - 8 4 - - S 1022,8 10 0 0,0
22.10.2019 18:00:00 11,3 6,5 - - 5 3 - - S 1022,6 10 0 0,0
22.10.2019 17:00:00 11,5 6,3 - - 8 4 - - SW 1022,8 10 12 0,0
22.10.2019 16:00:00 11,8 5,8 - - 11 6 - - WSW 1022,8 10 36 0,0
22.10.2019 15:00:00 12,2 6,2 - - 13 7 - - WSW 1023,2 10 24 0,0
22.10.2019 14:00:00 11,6 5,8 - - 13 7 - - W 1023,7 10 24 0,0
22.10.2019 13:00:00 12,1 7,0 - - 13 7 - - WSW 1023,9 10 48 0,0
22.10.2019 12:00:00 10,9 8,3 - - 13 7 - - W 1024,1 10 24 0,0
22.10.2019 11:00:00 9,6 8,9 - - 8 4 - - SW 1024,6 10 0 0,0
22.10.2019 10:00:00 8,2 8,1 11,9 12,9 8 4 - - WSW 1024,7 10 0 0,0
22.10.2019 09:00:00 7,2 7,2 - - 5 3 - - WSW 1024,2 10 6 0,0
22.10.2019 08:00:00 6,4 6,3 - - 5 3 - - W 1023,5 9 0 0,0
22.10.2019 07:00:00 5,3 5,2 - - 5 3 - - W 1023,3 0,3 0 0,0
22.10.2019 06:00:00 5,1 5,0 - - 5 3 - - W 1023,0 0,3 0 0,0
22.10.2019 05:00:00 5,7 5,4 - - 8 4 - - W 1022,6 1,1 0 0,0
22.10.2019 04:00:00 7,4 7,1 - - 8 4 - - WNW 1022,3 8 0 0,0
22.10.2019 03:00:00 7,2 6,8 - - 8 4 - - NW 1022,3 9 0 0,0
22.10.2019 02:00:00 8,5 8,0 - - 11 6 - - NNW 1022,1 10 0 0,0
22.10.2019 01:00:00 9,1 8,6 - - 13 7 - - NW 1022,3 10 - 0,0
22.10.2019 00:00:00 9,5 8,9 - - 16 9 - - NW 1022,0 10 0 0,0
21.10.2019 23:00:00 9,8 9,2 - - 16 9 - - NNW 1021,7 10 0 0,0
21.10.2019 22:00:00 9,8 9,3 - - 18 10 - - NNW 1021,3 10 0 0,0
21.10.2019 21:00:00 10,1 9,2 - - 16 9 - - NNW 1020,7 10 0 0,0
21.10.2019 20:00:00 10,4 9,3 - - 15 8 - - NNW 1020,6 10 0 0,0
21.10.2019 19:00:00 10,7 9,5 - - 21 11 - - N 1020,2 10 0 0,0
21.10.2019 18:00:00 10,7 10,0 - - 18 10 - - NNW 1019,1 10 0 0,2
21.10.2019 17:00:00 11,1 10,2 - - 21 11 - - NNW 1018,8 10 0 0,2
21.10.2019 16:00:00 11,3 10,4 - - 22 12 - - N 1018,6 10 0 -
21.10.2019 15:00:00 11,9 10,2 - - 24 13 - - N 1018,3 10 0 0,0
21.10.2019 14:00:00 12,0 10,3 - - 22 12 - - N 1017,9 10 0 0,0
21.10.2019 13:00:00 11,8 10,5 - - 26 14 - - N 1017,6 10 0 0,0
21.10.2019 12:00:00 11,4 10,3 - - 26 14 - - N 1017,2 10 0 0,2
21.10.2019 11:00:00 11,1 10,2 - - 24 13 - - N 1016,9 10 0 0,0
21.10.2019 10:00:00 10,9 10,0 11,9 13,0 24 13 - - N 1016,3 10 0 0,2
21.10.2019 09:00:00 10,7 9,4 - - 22 12 - - N 1015,9 10 0 0,0
21.10.2019 08:00:00 10,5 8,9 - - 21 11 - - N 1015,2 10 0 0,0
21.10.2019 07:00:00 10,6 9,4 - - 21 11 - - N 1014,5 30 0 0,0
21.10.2019 06:00:00 10,5 9,6 - - 22 12 - - N 1014,2 25 0 0,0
21.10.2019 05:00:00 10,4 9,6 - - 21 11 - - N 1013,9 24 0 0,0
21.10.2019 04:00:00 10,1 9,6 - - 18 10 - - N 1013,9 10 0 0,2
21.10.2019 03:00:00 9,9 9,2 - - 15 8 - - N 1013,9 10 0 0,6
21.10.2019 02:00:00 10,1 9,0 - - 16 9 - - N 1014,3 6 0 0,0
21.10.2019 01:00:00 10,3 9,3 - - 24 13 - - N 1013,9 24 - 0,0
21.10.2019 00:00:00 10,0 9,3 - - 21 11 - - N 1013,8 18 0 0,0
20.10.2019 23:00:00 10,0 9,4 - - 21 11 - - N 1013,5 19 0 0,0
20.10.2019 22:00:00 8,9 8,6 - - 15 8 - - N 1013,3 13 0 0,0
20.10.2019 21:00:00 8,0 7,7 - - 15 8 - - N 1012,8 12 0 0,0
20.10.2019 20:00:00 8,0 7,5 - - 13 7 - - N 1012,7 10 0 0,0
20.10.2019 19:00:00 9,7 8,7 - - 15 8 - - N 1012,5 30 0 0,0
20.10.2019 18:00:00 9,9 8,6 - - 11 6 - - NNW 1011,9 10 0 0,0
20.10.2019 17:00:00 10,3 8,5 - - 18 10 - - N 1011,6 45 0 0,0
20.10.2019 16:00:00 10,9 8,6 - - 13 7 - - N 1011,0 25 0 0,0
20.10.2019 15:00:00 11,1 8,2 - - 16 9 - - N 1010,8 24 12 0,0
20.10.2019 14:00:00 11,5 7,9 - - 18 10 - - N 1010,4 10 24 0,0
20.10.2019 13:00:00 10,1 8,0 - - 21 11 - - NNW 1010,4 29 12 0,0
20.10.2019 12:00:00 8,8 8,2 - - 16 9 - - N 1010,5 10 0 0,0
20.10.2019 11:00:00 8,0 7,7 - - 15 8 - - N 1010,2 10 0 0,0
20.10.2019 10:00:00 6,5 6,3 12,0 13,2 15 8 - - N 1009,7 11 0 0,0
20.10.2019 09:00:00 5,8 5,7 - - 11 6 - - NNW 1009,2 11 0 0,0
20.10.2019 08:00:00 5,1 5,0 - - 11 6 - - NW 1008,4 8 0 0,2
20.10.2019 07:00:00 4,3 4,1 - - 9 5 - - NW 1008,0 5 0 0,0
20.10.2019 06:00:00 4,0 3,8 - - 11 6 - - NW 1007,8 5 0 0,0
20.10.2019 05:00:00 4,1 3,9 - - 9 5 - - NW 1006,8 3,7 0 0,0
20.10.2019 04:00:00 3,7 3,4 - - 9 5 - - WNW 1006,7 2,3 0 0,0
20.10.2019 03:00:00 5,2 4,9 - - 8 4 - - WSW 1006,2 6 0 0,0
20.10.2019 02:00:00 5,5 5,0 - - 9 5 - - SW 1006,0 19 0 0,0
20.10.2019 01:00:00 5,0 4,3 - - 9 5 - - WSW 1005,7 22 - 0,0
20.10.2019 00:00:00 6,4 5,5 - - 9 5 - - SW 1005,4 45 0 0,0
19.10.2019 23:00:00 7,1 5,9 - - 9 5 - - SW 1004,8 45 0 0,0
19.10.2019 22:00:00 7,7 6,1 - - 8 4 - - SW 1004,3 10 0 0,0
19.10.2019 21:00:00 7,6 5,9 - - 8 4 - - SW 1003,7 50 0 0,0
19.10.2019 20:00:00 9,2 7,2 - - 5 3 - - WSW 1002,9 50 0 0,0
19.10.2019 19:00:00 9,8 7,2 - - 8 4 - - SW 1002,5 50 0 0,0
19.10.2019 18:00:00 11,1 7,2 - - 8 4 - - SW 1001,7 10 30 0,0
19.10.2019 17:00:00 12,8 7,2 - - 18 10 - - W 1001,1 45 24 0,0
19.10.2019 16:00:00 13,2 7,3 - - 18 10 - - WSW 1000,6 50 0 0,0
19.10.2019 15:00:00 13,1 6,2 - - 24 13 - - WSW 1000,2 45 30 0,0
19.10.2019 14:00:00 14,0 7,4 - - 22 12 - - WSW 999,7 30 36 0,0
19.10.2019 13:00:00 14,2 8,5 - - 21 11 - - WSW 999,4 30 24 0,0
19.10.2019 12:00:00 12,2 8,1 - - 22 12 - - WSW 999,5 10 30 0,0
19.10.2019 11:00:00 12,0 9,0 - - 18 10 - - SW 999,3 10 60 0,0
19.10.2019 10:00:00 10,9 9,1 12,5 13,2 16 9 - - SSW 999,2 10 60 0,0
19.10.2019 09:00:00 9,2 8,4 - - 15 8 - - SSW 999,1 20 0 0,0
19.10.2019 08:00:00 8,9 7,8 - - 13 7 - - SSW 998,4 21 0 0,0
19.10.2019 07:00:00 9,2 8,0 - - 15 8 - - SSW 998,3 10 0 0,0
19.10.2019 06:00:00 9,7 8,4 - - 16 9 - - SSW 998,2 18 0 0,0
19.10.2019 05:00:00 9,8 8,3 - - 16 9 - - SSW 998,3 25 0 0,0
19.10.2019 04:00:00 10,1 8,7 - - 15 8 - - S 998,7 19 0 0,0
19.10.2019 03:00:00 10,1 8,1 - - 15 8 - - SSW 999,0 21 0 0,0
19.10.2019 02:00:00 10,4 8,2 - - 16 9 - - S 999,1 10 0 0,0
19.10.2019 01:00:00 10,4 8,7 - - 16 9 - - S 999,1 14 - 0,0
19.10.2019 00:00:00 10,3 8,5 - - 18 10 - - S 999,4 10 0 0,0
18.10.2019 23:00:00 10,3 8,4 - - 18 10 - - S 999,5 14 0 0,0
18.10.2019 22:00:00 10,4 8,0 - - 18 10 - - S 999,9 14 0 0,0
18.10.2019 21:00:00 10,6 8,0 - - 16 9 - - S 1000,0 14 0 0,0
18.10.2019 20:00:00 10,8 8,0 - - 16 9 - - S 1000,1 16 0 0,0
18.10.2019 19:00:00 11,1 7,3 - - 18 10 - - SSW 1000,0 19 0 0,0
18.10.2019 18:00:00 12,4 7,6 - - 24 13 - - SW 999,6 16 12 0,0
18.10.2019 17:00:00 12,3 8,4 - - 22 12 46 25 SSW 999,5 10 24 0,0
18.10.2019 16:00:00 13,4 8,8 - - 28 15 - - SW 999,2 10 6 0,0
18.10.2019 15:00:00 13,6 8,2 - - 31 17 50 27 WSW 999,2 10 18 0,0
18.10.2019 14:00:00 14,7 8,1 - - 28 15 48 26 SW 998,8 10 36 0,0
18.10.2019 13:00:00 13,5 8,0 - - 28 15 52 28 WSW 999,1 10 54 0,0
18.10.2019 12:00:00 12,9 8,5 - - 26 14 - - WSW 999,0 10 60 0,0
18.10.2019 11:00:00 11,2 8,6 - - 24 13 - - WSW 998,8 10 42 0,2
18.10.2019 10:00:00 9,8 8,8 12,7 13,2 21 11 - - WSW 998,4 10 0 0,0
18.10.2019 09:00:00 9,6 8,6 - - 21 11 - - SW 997,4 10 0 0,0
18.10.2019 08:00:00 9,4 8,5 - - 11 6 - - S 997,2 10 0 0,0
18.10.2019 07:00:00 8,9 8,3 - - 13 7 - - S 997,2 10 0 0,0
18.10.2019 06:00:00 9,3 8,3 - - 11 6 - - S 998,0 10 0 0,8
18.10.2019 05:00:00 10,5 9,6 - - 16 9 - - S 999,0 10 0 1,6
18.10.2019 04:00:00 10,9 9,9 - - 13 7 - - S 999,6 22 0 0,0
18.10.2019 03:00:00 10,4 9,6 - - 15 8 - - S 1000,5 30 0 0,2
18.10.2019 02:00:00 10,8 9,8 - - 15 8 - - S 1001,5 30 0 0,0
18.10.2019 01:00:00 10,6 10,0 - - 13 7 - - S 1002,3 30 - 0,0
18.10.2019 00:00:00 10,5 9,8 - - 13 7 - - S 1002,8 10 0 0,0
17.10.2019 23:00:00 10,4 9,6 - - 15 8 - - S 1003,3 27 0 0,0
17.10.2019 22:00:00 10,3 8,5 - - 11 6 - - S 1004,0 50 0 0,0
17.10.2019 21:00:00 11,0 9,1 - - 18 10 - - S 1004,4 50 0 0,0
17.10.2019 20:00:00 11,3 10,1 - - 15 8 - - S 1004,5 10 0 0,0
17.10.2019 19:00:00 10,9 9,7 - - 13 7 - - S 1004,9 10 0 0,0
17.10.2019 18:00:00 11,1 9,5 - - 15 8 - - S 1004,7 10 36 0,0
17.10.2019 17:00:00 11,9 10,2 - - 13 7 - - S 1004,7 35 12 0,6
17.10.2019 16:00:00 12,5 10,6 - - 18 10 - - SSW 1004,9 10 0 0,2
17.10.2019 15:00:00 12,9 10,8 - - 15 8 - - S 1005,4 10 6 0,2
17.10.2019 14:00:00 12,1 9,5 - - 22 12 - - SSW 1006,3 15 18 0,2
17.10.2019 13:00:00 15,0 8,4 - - 18 10 - - S 1006,2 10 60 0,0
17.10.2019 12:00:00 13,6 7,8 - - 18 10 - - SSW 1006,9 10 60 0,0
17.10.2019 11:00:00 12,6 9,5 - - 13 7 - - S 1007,1 10 30 0,0
17.10.2019 10:00:00 10,0 8,3 12,9 13,4 8 4 - - S 1007,6 10 0 0,0
17.10.2019 09:00:00 9,1 7,8 - - 9 5 - - S 1007,5 10 0 0,0
17.10.2019 08:00:00 8,1 7,3 - - 11 6 - - S 1007,4 10 0 0,0
17.10.2019 07:00:00 7,6 6,7 - - 11 6 - - SSW 1007,0 10 0 0,0
17.10.2019 06:00:00 7,5 6,7 - - 11 6 - - SSW 1007,0 22 0 0,0
17.10.2019 05:00:00 7,0 5,9 - - 8 4 - - SW 1006,9 30 0 0,0

tt = temperature
td = dewpoint
tt -20cm = temperature -20cm
tt -100cm = temperature -100cm
ff = wind speed
fx = gusts
dd = wind direction
ppp = reduced air pressure
vv = visibility
sd = sunshine duration
rr = precipitation

Next stations